Location: Newark
(30.0333°N, 31.2167°E)
Time: 23:16:23
(UTC+00:00)

Tiros 1 - Pass Details

Date: 30 January 2020
Orbit: 631 x 664 km, 48.4° (Epoch: 24 February)

Event Time Altitude Azimuth Distance (km) Brightness Sun altitude
Rises 14:55:26 0° 315° (NW) 2,967 10.8 6.1°
Reaches altitude 10° 14:57:49 10° 320° (NW) 2,059 10.0 5.6°
Maximum altitude 15:02:29 55° 39° (NE) 791 7.4 4.7°
Drops below altitude 10° 15:07:09 10° 117° (ESE) 2,068 9.4 3.8°
Sets 15:09:33 0° 121° (ESE) 2,980 10.2 3.3°
